• In Deutschland
  • Länderverzeichnis
  • Für 7 Tage
  • Wassertemperatur
  • Satellitenkarten
  • Wetterkarte
  • Widgets
  • user-avatar
    Anmelden

    Stündliche Wetter Argenthal

    Heute, 17 Oktober, Dienstag

    Zeit Temperatur Niederschläge Wind Luftdruck Luftfeuchtigkeit
    00:00 +13°C° 0 mm 1 m/S 727 mmHg 78%
    01:00 +13°C° 0 mm 1 m/S 727 mmHg 79%
    02:00 +13°C° 0 mm 1 m/S 727 mmHg 80%
    03:00 +13°C° 0 mm 1 m/S 727 mmHg 82%
    04:00 +12°C° 0 mm 1 m/S 727 mmHg 83%
    05:00 +12°C° 0 mm 1 m/S 727 mmHg 84%
    06:00 +12°C° 0 mm 1 m/S 727 mmHg 86%
    07:00 +11°C° 0 mm 1 m/S 727 mmHg 87%
    08:00 +13°C° 0 mm 1 m/S 727 mmHg 81%
    09:00 +15°C° 0 mm 1 m/S 727 mmHg 75%
    10:00 +18°C° 0 mm 1 m/S 727 mmHg 69%
    11:00 +19°C° 0 mm 1 m/S 727 mmHg 66%
    12:00 +21°C° 0 mm 1 m/S 727 mmHg 62%
    13:00 +22°C° 0 mm 1 m/S 727 mmHg 59%
    14:00 +22°C° 0 mm 1 m/S 726 mmHg 61%
    15:00 +22°C° 0 mm 1 m/S 726 mmHg 63%
    16:00 +22°C° 0 mm 1 m/S 726 mmHg 65%
    17:00 +20°C° 0 mm 1 m/S 725 mmHg 71%
    18:00 +18°C° 0 mm 1 m/S 725 mmHg 76%
    19:00 +15°C° 0 mm 1 m/S 724 mmHg 82%
    20:00 +14°C° 0 mm 1 m/S 724 mmHg 82%
    21:00 +14°C° 0 mm 1 m/S 724 mmHg 83%
    22:00 +13°C° 0 mm 1 m/S 724 mmHg 83%
    23:00 +13°C° 0 mm 1 m/S 724 mmHg 83%

    Morgen, 18 Oktober, Mittwoch

    Zeit Temperatur Niederschläge Wind Luftdruck Luftfeuchtigkeit
    00:00 +12°C° 0 mm 1 m/S 723 mmHg 83%
    01:00 +12°C° 0 mm 1 m/S 723 mmHg 83%
    02:00 +12°C° 0 mm 1 m/S 723 mmHg 83%
    03:00 +11°C° 0 mm 1 m/S 722 mmHg 82%
    04:00 +11°C° 0 mm 1 m/S 722 mmHg 82%
    05:00 +10°C° 0 mm 1 m/S 722 mmHg 82%
    06:00 +10°C° 0 mm 1 m/S 722 mmHg 81%
    07:00 +10°C° 0 mm 1 m/S 722 mmHg 81%
    08:00 +10°C° 0 mm 2 m/S 722 mmHg 76%
    09:00 +13°C° 0 mm 2 m/S 722 mmHg 70%
    10:00 +14°C° 0 mm 2 m/S 722 mmHg 65%
    11:00 +16°C° 0 mm 2 m/S 722 mmHg 61%
    12:00 +17°C° 0 mm 3 m/S 722 mmHg 58%
    13:00 +18°C° 0 mm 3 m/S 722 mmHg 55%
    14:00 +18°C° 0 mm 3 m/S 722 mmHg 57%
    15:00 +18°C° 0 mm 2 m/S 721 mmHg 59%
    16:00 +18°C° 0 mm 2 m/S 721 mmHg 62%
    17:00 +17°C° 0 mm 2 m/S 721 mmHg 68%
    18:00 +15°C° 0 mm 1 m/S 721 mmHg 75%
    19:00 +13°C° 0 mm 1 m/S 721 mmHg 81%
    20:00 +13°C° 0 mm 1 m/S 721 mmHg 82%
    21:00 +12°C° 0 mm 1 m/S 721 mmHg 83%
    22:00 +12°C° 0 mm 1 m/S 721 mmHg 85%
    23:00 +12°C° 0 mm 1 m/S 721 mmHg 85%

    übermorgen, 19 Oktober, Donnerstag

    Zeit Temperatur Niederschläge Wind Luftdruck Luftfeuchtigkeit
    00:00 +11°C° 0 mm 1 m/S 720 mmHg 85%
    01:00 +11°C° 0 mm 1 m/S 720 mmHg 85%
    02:00 +11°C° 0 mm 1 m/S 720 mmHg 85%
    03:00 +11°C° 0 mm 1 m/S 720 mmHg 84%
    04:00 +10°C° 0 mm 1 m/S 720 mmHg 84%
    05:00 +10°C° 0 mm 1 m/S 720 mmHg 84%
    06:00 +10°C° 0 mm 1 m/S 720 mmHg 83%
    07:00 +10°C° 0 mm 1 m/S 720 mmHg 83%
    08:00 +12°C° 0 mm 1 m/S 720 mmHg 76%
    09:00 +14°C° 0 mm 2 m/S 720 mmHg 70%
    10:00 +16°C° 0 mm 2 m/S 721 mmHg 64%
    11:00 +16°C° 0 mm 2 m/S 720 mmHg 62%
    12:00 +17°C° 0 mm 2 m/S 720 mmHg 60%
    13:00 +17°C° 0 mm 3 m/S 720 mmHg 59%
    14:00 +17°C° 0 mm 3 m/S 720 mmHg 60%
    15:00 +17°C° 0 mm 3 m/S 720 mmHg 62%
    16:00 +16°C° 0 mm 2 m/S 720 mmHg 63%
    17:00 +16°C° 0 mm 2 m/S 720 mmHg 66%
    18:00 +15°C° 0 mm 2 m/S 720 mmHg 68%
    19:00 +14°C° 0 mm 2 m/S 719 mmHg 71%
    20:00 +14°C° 0 mm 2 m/S 720 mmHg 72%
    21:00 +13°C° 0 mm 2 m/S 720 mmHg 74%
    22:00 +13°C° 0 mm 2 m/S 720 mmHg 76%
    23:00 +13°C° 0,2 mm 2 m/S 720 mmHg 77%

    20 Oktober, Freitag

    Zeit Temperatur Niederschläge Wind Luftdruck Luftfeuchtigkeit
    00:00 +13°C° 0,2 mm 2 m/S 720 mmHg 79%
    01:00 +13°C° 0,2 mm 2 m/S 720 mmHg 80%
    02:00 +13°C° 0,3 mm 2 m/S 719 mmHg 82%
    03:00 +13°C° 0,3 mm 2 m/S 719 mmHg 83%
    04:00 +12°C° 0,3 mm 2 m/S 719 mmHg 84%
    05:00 +12°C° 0,4 mm 3 m/S 719 mmHg 85%
    06:00 +12°C° 0,4 mm 3 m/S 719 mmHg 86%
    07:00 +12°C° 0,4 mm 4 m/S 719 mmHg 87%
    08:00 +13°C° 0 mm 4 m/S 720 mmHg 84%
    09:00 +13°C° 0 mm 5 m/S 720 mmHg 81%
    10:00 +14°C° 0 mm 6 m/S 721 mmHg 78%
    11:00 +15°C° 0 mm 6 m/S 721 mmHg 77%
    12:00 +15°C° 0 mm 5 m/S 721 mmHg 76%
    13:00 +15°C° 0 mm 5 m/S 721 mmHg 75%
    14:00 +15°C° 0 mm 5 m/S 721 mmHg 75%
    15:00 +15°C° 0 mm 5 m/S 721 mmHg 74%
    16:00 +15°C° 0 mm 4 m/S 721 mmHg 74%
    17:00 +14°C° 0 mm 4 m/S 721 mmHg 79%
    18:00 +13°C° 0 mm 3 m/S 721 mmHg 85%
    19:00 +12°C° 0 mm 2 m/S 721 mmHg 90%
    20:00 +12°C° 0 mm 2 m/S 721 mmHg 91%
    21:00 +12°C° 0 mm 2 m/S 721 mmHg 91%
    22:00 +12°C° 0 mm 2 m/S 721 mmHg 91%
    23:00 +12°C° 0 mm 2 m/S 721 mmHg 91%

    21 Oktober, Samstag

    Zeit Temperatur Niederschläge Wind Luftdruck Luftfeuchtigkeit
    00:00 +13°C° 0 mm 2 m/S 721 mmHg 90%
    01:00 +13°C° 0 mm 2 m/S 721 mmHg 89%
    02:00 +12°C° 0,2 mm 3 m/S 721 mmHg 88%
    03:00 +12°C° 0,2 mm 3 m/S 720 mmHg 87%
    04:00 +12°C° 0,2 mm 3 m/S 720 mmHg 86%
    05:00 +12°C° 0,5 mm 3 m/S 720 mmHg 87%
    06:00 +12°C° 0,5 mm 3 m/S 720 mmHg 89%
    07:00 +12°C° 0,5 mm 3 m/S 720 mmHg 90%
    08:00 +13°C° 0,5 mm 3 m/S 720 mmHg 90%
    09:00 +13°C° 0,5 mm 4 m/S 720 mmHg 90%
    10:00 +13°C° 0,5 mm 4 m/S 721 mmHg 89%
    11:00 +13°C° 1,6 mm 4 m/S 721 mmHg 90%
    12:00 +13°C° 1,6 mm 4 m/S 721 mmHg 91%
    13:00 +13°C° 1,6 mm 4 m/S 721 mmHg 92%
    14:00 +13°C° 1,1 mm 4 m/S 721 mmHg 91%
    15:00 +13°C° 1,1 mm 3 m/S 721 mmHg 90%
    16:00 +12°C° 1,1 mm 3 m/S 721 mmHg 89%
    17:00 +12°C° 0,1 mm 3 m/S 721 mmHg 89%
    18:00 +11°C° 0,1 mm 3 m/S 721 mmHg 89%
    19:00 +11°C° 0,1 mm 3 m/S 721 mmHg 89%
    20:00 +11°C° 0 mm 3 m/S 721 mmHg 88%
    21:00 +10°C° 0 mm 4 m/S 721 mmHg 88%
    22:00 +10°C° 0 mm 4 m/S 721 mmHg 87%
    23:00 +10°C° 0 mm 4 m/S 720 mmHg 88%

    22 Oktober, Sonntag

    Zeit Temperatur Niederschläge Wind Luftdruck Luftfeuchtigkeit
    00:00 +10°C° 0 mm 4 m/S 720 mmHg 88%
    01:00 +8°C° 0 mm 4 m/S 720 mmHg 89%
    02:00 +8°C° 0 mm 4 m/S 720 mmHg 88%
    03:00 +7°C° 0 mm 5 m/S 720 mmHg 87%
    04:00 +7°C° 0 mm 5 m/S 721 mmHg 86%
    05:00 +7°C° 0 mm 5 m/S 721 mmHg 85%
    06:00 +6°C° 0 mm 5 m/S 721 mmHg 85%
    07:00 +6°C° 0 mm 5 m/S 721 mmHg 85%
    08:00 +7°C° 0 mm 6 m/S 721 mmHg 82%
    09:00 +7°C° 0 mm 6 m/S 721 mmHg 79%
    10:00 +7°C° 0 mm 6 m/S 721 mmHg 77%
    11:00 +7°C° 0 mm 6 m/S 721 mmHg 74%
    12:00 +8°C° 0 mm 7 m/S 721 mmHg 72%
    13:00 +8°C° 0 mm 7 m/S 721 mmHg 70%
    14:00 +8°C° 0,1 mm 6 m/S 721 mmHg 71%
    15:00 +8°C° 0,1 mm 6 m/S 721 mmHg 71%
    16:00 +8°C° 0,1 mm 6 m/S 721 mmHg 72%
    17:00 +7°C° 0,1 mm 6 m/S 722 mmHg 74%
    18:00 +7°C° 0,1 mm 5 m/S 722 mmHg 77%
    19:00 +6°C° 0,1 mm 5 m/S 722 mmHg 80%
    20:00 +6°C° 0,3 mm 5 m/S 723 mmHg 82%
    21:00 +6°C° 0,3 mm 5 m/S 723 mmHg 83%
    22:00 +6°C° 0,3 mm 5 m/S 723 mmHg 85%
    23:00 +6°C° 0,1 mm 5 m/S 724 mmHg 85%
    Mehr zeigen